Date,TemperatureHighF,TemperatureAvgF,TemperatureLowF,DewpointHighF,DewpointAvgF,DewpointLowF,HumidityHigh,HumidityAvg,HumidityLow,PressureMaxIn,PressureMinIn,WindSpeedMaxMPH,WindSpeedAvgMPH,GustSpeedMaxMPH,PrecipitationSumIn
2013-1-1,36.3,33.3,28.0,32.5,29.3,23.9,89,85,80,29.10,28.78,12,2,12,0.00
2013-1-2,37.2,32.2,25.8,32.3,28.0,22.7,90,84,79,29.10,28.86,12,1,12,0.00
2013-1-3,37.5,34.9,27.8,32.2,30.2,24.4,88,83,76,29.18,29.06,19,3,19,0.00
2013-1-4,28.9,28.4,27.5,26.1,25.6,24.6,89,89,87,29.30,29.18,0,0,0,0.00
2013-1-9,17.7,14.2,12.3,14.7,11.1,9.2,88,87,87,29.64,29.54,0,0,0,0.00
2013-1-10,24.9,21.4,17.7,22.4,18.7,14.7,91,89,88,29.76,29.55,0,0,0,0.00
2013-1-11,29.3,26.3,22.8,27.0,23.9,20.2,91,91,89,29.74,29.50,0,0,0,0.00
2013-1-12,33.2,30.8,25.3,31.4,28.9,23.0,93,92,91,29.62,29.46,2,0,2,0.47
2013-1-13,37.7,35.1,33.2,36.1,33.3,31.4,94,94,93,29.48,29.21,8,0,8,0.22
2013-1-14,37.9,34.7,28.9,36.3,31.0,20.2,94,87,65,29.58,29.11,23,2,23,0.12
2013-1-15,28.9,23.8,18.8,24.5,18.5,14.5,88,80,66,29.82,29.58,12,0,12,0.00
2013-1-16,23.3,22.6,21.5,20.3,19.5,18.5,88,88,87,29.79,29.71,0,0,0,0.00
2013-1-18,12.9,12.7,12.5,9.2,9.0,8.8,85,85,85,29.83,29.80,0,0,0,0.00
2013-1-19,24.9,19.0,12.2,21.0,15.5,8.5,87,86,85,29.83,29.50,20,5,20,0.00
2013-1-20,31.6,28.0,24.4,28.7,25.1,20.9,91,89,85,29.50,29.43,18,3,18,0.00
2013-1-21,31.1,24.9,15.0,28.4,22.1,12.3,92,89,87,29.45,29.26,10,2,10,0.00
2013-1-22,33.0,31.1,29.8,29.2,27.8,26.4,89,87,84,29.27,29.02,12,2,12,0.00
2013-1-23,40.2,27.4,23.0,36.0,24.4,20.2,91,88,80,29.02,28.88,8,0,8,0.00
2013-1-24,37.2,24.1,15.8,34.2,21.5,12.7,93,90,87,29.11,28.95,7,0,7,0.00
2013-1-25,33.4,17.9,-7.7,31.1,12.1,-13.4,92,78,63,29.29,28.93,21,2,21,0.00
2013-1-26,18.1,-9.4,-17.8,10.2,-15.1,-23.0,84,75,66,29.54,29.29,0,0,0,0.00
2013-1-27,13.6,-13.0,-21.8,5.3,-19.2,-27.6,83,73,64,29.79,29.54,1,0,1,0.00
2013-1-28,6.9,-2.5,-21.8,2.6,-7.7,-27.4,82,78,74,29.83,29.42,20,2,20,0.00
2013-1-29,14.1,10.2,6.6,10.4,5.9,2.2,85,82,80,29.46,29.35,25,5,25,0.00
2013-1-30,28.7,22.1,14.1,26.2,18.9,10.4,90,87,84,29.45,29.24,61,1,61,0.00
2013-1-31,33.9,31.0,27.8,31.5,28.7,25.5,92,91,90,29.55,29.30,1,0,1,0.00
2013-2-1,29.4,27.9,25.8,27.7,25.8,23.8,93,92,90,29.57,29.25,0,0,0,0.00
2013-2-2,47.8,31.5,27.6,41.4,29.1,25.6,94,91,75,29.26,28.92,9,1,9,0.02
2013-2-3,36.3,30.9,25.0,33.9,28.7,22.7,93,92,90,29.08,28.83,8,0,8,0.00
2013-2-4,28.9,23.9,20.4,26.9,21.6,17.9,93,91,90,29.18,29.08,0,0,0,0.00
2013-2-8,29.1,27.9,27.1,26.3,25.7,24.8,92,91,89,29.35,29.28,0,0,0,0.00
2013-2-9,48.7,34.8,28.0,39.8,31.1,26.0,93,87,66,29.28,28.55,15,2,15,0.02
2013-2-10,38.8,34.4,29.4,32.9,30.2,26.6,90,85,76,29.11,28.54,22,2,22,0.04
2013-2-11,43.1,24.3,16.5,27.2,16.5,9.3,89,73,46,29.35,29.11,16,2,16,0.00
2013-2-12,28.9,23.3,15.9,24.4,19.4,11.7,88,85,80,29.37,29.30,13,2,13,0.00
2013-2-13,33.6,25.9,18.3,29.2,22.5,15.2,90,87,82,29.42,29.19,0,0,0,0.00
2013-2-14,35.9,31.9,25.1,29.3,26.4,22.0,90,80,74,29.20,28.82,24,4,24,0.00
2013-2-15,38.8,24.0,6.4,28.2,18.9,1.8,90,81,62,29.54,29.11,13,1,13,0.00
2013-2-16,41.9,17.9,5.1,29.8,11.4,0.8,85,76,54,29.62,29.33,57,2,57,0.00
2013-2-17,27.1,22.9,20.4,22.8,19.2,16.3,88,85,83,29.40,29.19,57,4,57,0.00
2013-2-18,43.3,8.3,-7.6,27.7,2.0,-12.2,86,76,46,29.52,29.40,8,0,8,0.02
2013-2-19,17.0,10.8,-0.2,13.4,5.9,-5.2,86,80,73,29.47,28.86,61,4,61,0.00
2013-2-20,29.1,21.7,16.8,22.2,17.2,13.0,86,83,75,28.86,28.68,14,1,14,0.00
2013-2-21,32.7,25.2,19.5,27.5,21.3,16.2,88,85,80,28.87,28.72,6,0,6,0.00
2013-2-22,43.3,22.8,9.6,26.5,14.9,3.0,89,73,43,29.04,28.82,15,2,15,0.00
2013-2-23,27.1,19.8,10.5,21.4,14.9,5.2,86,81,72,28.98,28.76,20,3,20,0.00
2013-2-24,33.2,26.5,16.1,28.1,22.6,12.2,90,85,80,29.22,28.94,7,0,7,0.00
2013-2-25,37.9,23.1,4.6,31.0,18.4,0.5,91,82,74,29.25,29.11,18,3,18,0.00
2013-2-26,52.8,32.0,27.1,32.4,21.9,17.9,81,67,42,29.13,28.86,19,6,19,0.00
2013-2-27,48.0,29.9,19.9,30.4,20.7,11.9,82,69,48,28.88,28.79,11,2,11,0.00
2013-2-28,40.4,30.8,24.6,31.9,24.9,20.2,84,79,67,29.01,28.87,8,0,8,0.00
2013-3-1,39.0,29.4,21.9,33.0,25.3,17.7,89,85,76,29.55,29.01,3,0,3,0.00
2013-3-2,50.1,28.1,20.8,38.4,23.9,18.0,91,84,56,29.66,29.55,8,0,8,0.02
2013-3-3,31.6,25.5,19.2,27.3,21.9,16.1,89,86,82,30.01,29.65,79,2,79,0.00
2013-3-4,44.0,32.6,26.6,33.9,26.0,20.6,86,77,66,30.04,29.91,9,1,9,0.00
2013-3-5,65.1,29.9,15.4,43.2,21.7,11.4,87,73,40,29.91,29.59,3,0,3,0.00
2013-3-6,42.0,29.4,19.4,31.9,22.6,14.7,84,76,61,29.59,29.45,10,1,10,0.00
2013-3-7,44.2,37.8,34.8,32.1,29.9,25.7,85,74,51,29.23,29.07,21,6,21,0.00
2013-3-8,63.8,37.2,26.0,40.7,28.0,21.8,86,71,40,29.35,29.09,11,1,11,0.00
2013-3-9,54.3,35.2,27.1,37.7,28.0,22.6,87,76,50,29.71,29.35,9,0,9,0.00
2013-3-10,37.4,31.4,26.7,31.2,26.6,22.3,88,82,73,29.83,29.68,19,1,19,0.00
2013-3-11,62.4,32.5,20.8,41.5,23.9,16.3,89,73,39,29.93,29.83,18,1,18,0.00
2013-3-12,50.7,27.4,12.7,21.2,11.3,4.6,73,52,30,29.86,29.60,27,6,27,0.00
2013-3-13,51.6,20.2,-0.7,20.7,4.2,-9.0,71,52,27,29.61,29.38,16,2,16,0.00
2013-3-14,36.1,21.9,14.1,18.3,11.4,7.2,75,64,47,29.48,29.38,17,4,17,0.00
2013-3-15,54.1,20.4,-0.2,24.4,6.8,-6.0,81,59,28,29.45,29.32,32,1,32,0.00
2013-3-16,50.1,21.9,-5.9,21.8,4.6,-13.3,77,50,28,29.67,29.54,10,1,10,0.00
2013-3-17,62.2,27.0,-1.1,29.2,9.0,-8.6,77,50,25,29.77,29.67,9,0,9,0.00
2013-3-18,53.9,22.3,-2.2,24.9,6.4,-9.3,79,53,28,29.60,29.49,8,0,8,0.00
2013-3-19,44.9,15.4,-4.3,15.5,0.6,-11.4,77,55,27,29.56,29.49,21,2,21,0.00
2013-3-20,52.1,17.3,-4.3,21.5,0.2,-13.0,76,50,24,29.56,29.51,10,0,10,0.00
2013-3-21,53.7,24.9,-7.0,24.7,6.8,-15.3,75,48,28,29.78,29.55,3,0,3,0.00
2013-3-22,45.3,28.8,21.7,34.6,21.1,8.3,84,73,53,29.72,29.43,8,0,8,0.02
2013-3-23,57.7,32.6,23.5,35.2,22.6,16.7,85,68,41,29.46,29.39,14,2,14,0.00
2013-3-24,28.7,24.2,19.5,21.8,17.5,13.2,84,75,65,29.46,29.20,14,2,14,0.00
2013-3-25,33.2,23.2,17.4,19.6,15.4,6.8,85,73,51,29.20,29.03,20,3,20,0.00
2013-3-26,51.0,17.6,-10.4,25.1,4.7,-16.6,82,58,33,29.79,29.55,9,1,9,0.00
2013-3-27,36.1,12.0,-10.6,16.0,1.5,-17.5,76,64,40,29.86,29.78,12,2,12,0.00
2013-3-28,31.2,22.5,13.6,23.3,14.8,7.4,79,72,65,29.81,29.49,16,4,16,0.00
2013-3-29,52.1,39.3,28.9,35.0,28.2,23.5,80,65,50,29.56,29.41,17,3,17,0.02
2013-3-30,60.9,37.2,29.6,43.1,30.0,24.5,86,76,48,29.82,29.56,7,0,7,0.00
2013-3-31,65.8,34.9,20.8,43.5,26.7,17.2,89,74,39,29.86,29.73,10,1,10,0.00
2013-4-1,64.0,38.7,27.5,36.3,25.6,20.6,84,62,33,29.73,29.56,9,1,9,0.00
2013-4-2,68.1,37.7,19.5,37.6,23.8,14.6,84,60,28,29.76,29.62,8,0,8,0.00
2013-4-3,65.4,38.3,25.3,35.2,23.1,18.7,77,57,28,29.81,29.76,21,0,21,0.00
2013-4-4,57.3,32.9,20.1,29.1,18.7,13.2,81,59,30,29.80,29.38,14,2,14,0.00
2013-4-5,64.2,30.1,10.7,29.0,13.2,4.3,77,53,25,29.38,29.09,10,0,10,0.00
2013-4-6,54.1,28.6,18.8,30.8,16.1,9.5,72,60,39,29.14,29.05,9,1,9,0.00
2013-4-7,37.9,22.9,9.3,14.9,8.1,-1.0,70,54,36,29.41,29.14,21,4,21,0.00
2013-4-8,40.8,16.9,-0.2,16.8,4.8,-7.2,76,60,37,29.40,29.03,11,1,11,0.00
2013-4-9,40.4,22.6,7.8,23.2,10.0,1.6,79,59,47,29.09,28.69,12,1,12,0.00
2013-4-10,35.4,15.9,0.0,14.9,4.8,-9.9,77,62,39,29.57,29.10,14,2,14,0.00
2013-4-11,42.0,17.0,-0.2,16.8,4.1,-11.3,76,59,34,29.73,29.57,57,2,57,0.00
2013-4-12,13.2,5.1,-0.2,1.9,-5.1,-16.4,71,61,32,29.75,29.73,0,0,0,0.00
2013-4-27,41.9,37.7,31.8,17.9,15.6,12.7,45,40,37,29.54,29.41,32,7,32,0.00
2013-4-28,61.3,38.8,23.3,27.3,16.1,8.1,62,41,26,29.78,29.54,17,3,18,0.00
2013-4-29,67.2,37.4,19.5,34.9,20.7,12.5,75,54,28,29.80,29.71,9,0,9,0.00
2013-4-30,44.9,34.9,25.3,35.6,26.3,16.7,83,71,50,29.71,29.41,8,1,8,0.06
2013-5-1,53.9,39.5,27.6,36.0,28.8,24.0,87,67,46,29.41,29.14,16,4,16,0.00
2013-5-2,46.7,38.4,32.3,39.5,32.1,24.9,87,78,71,29.46,29.25,8,1,8,0.02
2013-5-3,45.1,38.5,32.9,39.9,34.7,29.5,91,86,81,29.52,29.40,6,0,6,0.00
2013-5-4,46.0,37.9,30.2,39.2,32.5,25.1,90,81,64,29.55,29.37,8,1,8,0.06
2013-5-5,67.6,41.9,24.8,43.0,27.8,20.8,89,62,33,29.76,29.56,11,1,11,0.00
2013-5-6,65.3,41.4,27.6,36.7,26.6,20.3,78,58,32,29.87,29.76,14,1,14,0.00
2013-5-7,65.6,44.2,30.3,40.2,30.1,23.2,79,60,36,29.89,29.84,12,1,12,0.00
2013-5-8,70.3,46.4,27.3,40.7,30.1,22.2,84,57,32,29.89,29.81,15,3,15,0.00
2013-5-9,62.4,42.8,28.7,40.6,30.0,21.6,77,62,44,29.90,29.84,15,1,15,0.00
2013-5-10,65.1,47.2,26.2,40.7,31.8,21.3,83,58,38,29.85,29.55,11,2,11,0.00
2013-5-11,57.9,48.4,39.5,46.3,39.0,34.4,85,71,53,29.54,29.19,15,1,15,0.02
2013-5-12,60.0,48.1,37.7,44.7,40.1,34.0,88,75,54,29.19,29.08,9,1,9,0.00
2013-5-13,64.5,47.8,36.5,46.2,34.9,22.1,89,64,39,29.10,29.02,17,2,17,0.00
2013-5-14,70.3,44.1,30.5,35.8,24.9,18.8,68,49,28,29.26,29.08,16,2,16,0.00
2013-5-15,62.9,41.5,24.9,35.1,26.0,18.4,79,56,35,29.36,29.26,12,1,12,0.00
2013-5-16,42.0,38.7,36.1,37.3,33.0,25.6,87,80,61,29.33,29.05,75,3,75,0.00
2013-5-17,48.2,39.3,33.2,41.7,34.9,29.5,90,84,73,29.15,29.01,9,2,9,0.02
2013-5-18,52.8,36.2,27.6,34.3,25.0,16.8,87,66,45,29.79,29.15,59,2,59,0.00
2013-5-19,66.0,41.7,19.7,34.5,21.7,13.9,81,49,25,30.22,29.79,12,2,12,0.00
2013-5-20,74.3,44.7,22.2,36.8,24.4,14.6,76,49,25,30.27,30.17,11,1,11,0.00
2013-5-21,72.1,50.4,35.2,44.3,34.8,24.9,77,56,36,30.18,29.88,10,1,10,0.00
2013-5-22,61.7,46.8,34.1,43.5,36.6,27.1,82,69,48,29.88,29.72,8,1,8,0.00
2013-5-23,63.6,50.3,42.0,49.5,41.4,34.1,87,73,56,29.77,29.70,7,1,7,0.00
2013-5-24,83.1,59.7,39.3,51.4,40.7,33.0,83,54,30,29.72,29.57,12,2,12,0.00
2013-5-25,86.7,57.0,31.8,50.9,38.4,25.4,80,54,25,29.62,29.51,12,1,12,0.00
2013-5-26,69.8,46.6,29.1,47.7,37.1,23.8,85,71,44,29.56,29.48,8,0,8,0.05
2013-5-27,85.8,60.5,42.6,55.5,44.6,35.7,88,60,33,29.51,29.37,17,2,17,0.00
2013-5-28,89.9,63.2,31.6,54.1,41.3,26.2,84,50,27,29.41,29.24,15,2,15,0.00
2013-5-29,98.2,66.3,38.1,56.6,42.5,30.2,77,47,23,29.37,29.26,15,2,15,0.00
2013-5-30,90.3,61.5,37.7,53.9,41.3,30.7,77,51,28,29.63,29.37,15,2,15,0.00
2013-5-31,75.9,50.7,36.1,53.2,39.3,29.2,85,67,41,29.72,29.63,8,1,8,0.00
2013-6-1,61.1,53.2,46.0,47.0,43.4,40.4,83,70,57,29.84,29.78,8,1,8,0.02
2013-6-2,66.3,52.4,44.9,50.1,42.5,36.3,87,71,49,29.85,29.68,10,1,10,0.06
2013-6-3,61.7,52.6,44.4,44.9,39.4,36.1,75,61,47,29.68,29.34,12,2,12,0.00
2013-6-4,68.5,51.8,39.0,45.6,40.0,33.0,79,65,43,29.46,29.28,11,2,11,0.00
2013-6-5,76.8,51.2,29.1,49.7,37.2,24.5,87,61,36,29.57,29.46,13,1,13,0.00
2013-6-6,82.5,59.7,35.2,46.8,37.0,28.0,77,46,27,29.56,29.31,19,4,19,0.00
2013-6-7,90.6,63.2,36.3,51.2,39.9,27.5,74,45,25,29.54,29.32,18,2,18,0.00
2013-6-8,90.5,66.5,41.5,52.3,43.2,31.7,71,45,27,29.72,29.54,12,2,12,0.00
2013-6-9,94.6,67.6,40.8,54.4,43.4,32.7,76,45,23,29.81,29.72,17,2,17,0.00
2013-6-10,93.7,66.5,39.9,55.8,43.7,30.9,74,47,27,29.86,29.73,12,2,12,0.00
2013-6-11,91.2,66.5,41.0,55.2,43.5,32.9,75,47,26,29.76,29.60,15,2,15,0.00
2013-6-12,95.7,68.0,40.1,57.0,42.7,30.9,73,44,21,29.63,29.54,12,2,12,0.00
2013-6-13,88.7,61.7,40.8,54.1,42.9,32.8,76,52,31,29.78,29.60,15,2,15,0.00
2013-6-14,91.0,71.6,36.1,57.0,47.8,30.2,81,45,30,29.88,29.81,10,2,10,0.00
2013-6-15,91.9,65.2,38.1,58.2,46.4,31.0,78,54,31,29.94,29.84,10,1,10,0.00
2013-6-16,98.4,69.3,39.7,61.4,47.9,32.9,78,51,27,29.86,29.72,8,1,8,0.00
2013-6-17,101.8,75.0,47.1,60.2,50.5,37.6,73,46,25,29.74,29.47,21,1,21,0.00
2013-6-18,100.7,72.6,50.3,63.7,49.9,41.6,74,48,28,29.54,29.40,12,2,12,0.00
2013-6-19,82.0,63.3,46.7,51.8,45.1,37.1,74,53,35,29.62,29.46,21,2,21,0.00
2013-6-20,78.6,58.6,42.2,54.4,45.2,34.5,79,62,41,29.66,29.59,11,2,11,0.00
2013-6-21,78.0,54.5,42.4,53.1,43.0,36.2,82,66,41,29.72,29.66,8,1,8,0.00
2013-6-22,79.5,56.7,37.7,54.0,42.5,32.0,83,62,40,29.68,29.41,10,2,10,0.00
2013-6-23,82.2,64.3,48.7,56.3,48.0,43.7,86,59,34,29.35,29.25,11,2,11,0.02
2013-6-24,84.0,64.0,49.1,58.2,49.2,42.4,84,61,40,29.30,29.24,12,1,12,0.00
2013-6-25,86.9,71.0,43.5,57.8,52.1,37.0,80,52,37,29.24,29.21,6,1,6,0.00
2013-6-26,98.4,76.1,51.4,62.4,54.8,45.1,79,50,28,29.50,29.22,12,2,12,0.02
2013-6-27,86.5,64.6,50.7,61.4,52.0,45.5,86,66,41,29.66,29.50,11,2,11,0.00
2013-6-28,64.2,58.0,52.7,54.3,50.5,46.5,80,76,69,29.80,29.76,7,0,7,0.00
2013-6-29,77.5,63.8,50.7,57.6,52.2,46.3,87,68,48,29.77,29.61,7,1,7,0.00
2013-6-30,64.9,58.1,52.3,51.3,48.5,45.1,77,71,60,29.66,29.47,5,0,5,0.00
2013-7-1,60.4,53.4,48.0,50.2,45.1,40.4,89,75,56,29.48,29.18,29,2,29,0.06
2013-7-2,69.8,55.3,47.1,51.4,45.0,39.5,83,69,49,29.51,29.19,17,1,17,0.04
2013-7-3,73.4,53.3,45.5,54.2,45.8,41.5,88,77,49,29.64,29.51,8,1,8,0.00
2013-7-4,57.3,51.3,46.7,50.1,46.3,43.5,89,83,75,29.68,29.61,7,0,7,0.12
2013-7-5,66.3,59.7,53.2,54.1,48.6,44.9,79,67,55,29.68,29.63,7,1,7,0.00
2013-7-6,66.0,59.4,49.2,52.5,48.9,45.5,88,69,58,29.59,29.37,13,2,13,0.00
2013-7-7,69.6,59.2,52.3,53.2,49.6,46.8,83,71,55,29.29,29.19,11,2,11,0.09
2013-7-8,76.6,61.7,44.4,55.7,50.1,41.7,91,68,47,29.41,29.35,11,1,11,0.06
2013-7-9,83.4,67.6,41.9,58.0,50.2,38.5,89,57,38,29.63,29.52,12,2,12,0.00
2013-7-10,91.2,73.3,56.1,61.1,51.4,46.6,75,48,33,29.66,29.55,12,1,12,0.00
2013-7-11,91.9,68.6,44.7,59.5,49.7,39.2,83,54,34,29.58,29.51,10,1,10,0.00
2013-7-12,97.5,79.0,45.5,61.6,53.3,39.3,80,43,29,29.58,29.52,13,2,13,0.00
2013-7-13,88.8,71.3,48.0,60.0,51.8,42.0,80,53,35,29.75,29.62,13,2,13,0.00
2013-7-14,85.4,66.4,48.7,59.1,51.4,44.0,85,60,40,29.94,29.89,9,2,9,0.00
2013-7-15,74.4,57.5,42.4,56.6,48.1,37.1,84,72,53,29.97,29.87,9,1,9,0.00
2013-7-16,82.7,63.7,52.8,60.4,52.4,47.4,84,68,47,29.87,29.76,11,1,11,0.00
2013-7-17,77.3,70.1,52.1,61.2,57.4,48.0,87,64,56,29.73,29.67,13,2,13,0.00
2013-7-18,84.0,71.4,51.0,63.5,57.6,46.6,86,62,49,29.77,29.72,18,3,18,0.00
2013-7-19,88.3,69.4,58.8,59.4,52.9,47.1,76,58,36,29.80,29.74,19,5,19,0.00
2013-7-20,92.8,68.1,51.6,60.0,50.1,45.3,80,56,31,29.77,29.67,25,2,25,0.00
2013-7-21,91.2,66.4,42.6,57.1,46.6,36.2,80,53,28,29.70,29.57,16,3,16,0.00
2013-7-22,96.9,79.8,51.0,57.9,51.4,42.4,72,39,26,29.69,29.66,17,2,17,0.00
2013-7-23,92.3,74.7,53.7,62.2,53.9,46.3,76,50,36,29.73,29.65,6,1,6,0.00
2013-7-24,101.3,71.3,44.9,63.9,51.4,38.5,81,54,28,29.66,29.55,9,1,10,0.00
2013-7-25,96.4,75.9,61.8,66.2,58.5,52.7,74,57,37,29.69,29.60,10,2,10,0.00
2013-7-26,73.2,63.1,57.7,60.9,56.3,53.0,87,79,65,29.87,29.68,6,0,6,0.04
2013-7-27,78.4,64.7,51.0,62.5,56.4,47.5,88,76,57,29.97,29.94,4,0,4,0.00
2013-7-28,76.2,72.4,67.2,60.4,58.3,55.8,67,61,58,29.79,29.78,7,1,7,0.00
2013-7-29,95.0,70.2,47.1,66.5,55.7,42.6,85,63,37,29.81,29.75,9,1,9,0.00
2013-7-30,93.7,67.0,46.0,65.6,53.6,41.1,84,65,38,29.83,29.78,11,1,11,0.00
2013-7-31,90.1,64.2,48.2,64.4,52.8,42.5,83,69,41,29.83,29.75,11,1,11,0.00
2013-8-1,87.9,63.0,49.8,62.8,53.0,44.7,85,71,42,29.76,29.58,9,1,9,0.00
2013-8-2,87.0,63.7,53.4,58.8,51.8,49.3,88,68,37,29.62,29.42,20,2,20,0.02
2013-8-3,82.2,63.9,53.4,56.1,49.7,45.2,78,61,37,29.52,29.33,18,3,18,0.00
2013-8-4,75.2,58.5,49.8,56.8,50.1,44.7,86,75,49,29.60,29.51,7,0,7,0.00
2013-8-5,76.8,60.3,51.8,58.1,52.4,48.3,89,76,49,29.60,29.56,8,1,8,0.04
2013-8-6,65.6,62.1,57.3,51.3,49.5,48.0,71,63,59,29.53,29.46,15,4,15,0.00
2013-8-7,77.9,61.7,56.1,56.8,49.6,46.8,76,65,45,29.46,29.36,14,3,14,0.00
2013-8-8,67.4,58.0,50.7,55.9,49.4,43.9,88,73,63,29.44,29.35,8,1,8,0.02
2013-8-9,66.3,56.3,49.1,55.0,50.6,45.6,90,82,63,29.33,29.28,12,2,12,0.06
2013-8-10,76.2,60.5,49.1,58.9,51.9,46.5,92,75,53,29.61,29.40,8,1,8,0.00
2013-8-11,57.9,54.3,48.3,55.0,51.6,45.1,93,91,88,29.64,29.59,12,2,12,0.33
2013-8-12,64.7,62.4,58.8,59.4,57.7,55.2,88,85,82,29.64,29.63,4,0,4,0.08
2013-8-13,70.8,59.8,50.7,61.1,53.7,48.4,93,81,69,29.64,29.60,9,1,9,0.02
2013-8-14,64.9,58.9,50.5,52.9,50.6,47.3,89,75,63,29.65,29.52,4,0,4,0.00
2013-8-15,85.6,62.2,38.3,60.7,50.7,35.0,90,68,42,29.48,29.38,8,1,8,0.00
2013-8-16,57.9,53.3,46.0,54.5,49.2,42.1,92,86,78,29.39,29.23,8,1,8,0.02
2013-8-17,67.1,58.0,52.8,58.5,53.7,50.5,93,86,70,29.24,29.11,11,2,11,0.00
2013-8-18,65.1,57.8,52.7,58.6,53.4,49.8,92,86,77,29.28,29.10,7,0,7,0.08
2013-8-19,56.8,54.5,52.8,53.6,51.5,50.0,92,89,85,29.39,29.27,5,0,5,0.13
2013-8-20,81.1,57.0,50.1,62.9,51.8,47.7,93,84,51,29.47,29.38,9,0,9,0.02
2013-8-21,56.8,53.5,50.7,53.9,50.6,47.1,92,90,85,29.49,29.37,7,0,7,0.50
2013-8-22,57.9,54.1,51.6,55.9,52.0,49.4,94,93,91,29.38,29.30,6,0,6,0.31
2013-8-23,82.7,60.3,48.7,62.8,52.6,46.7,94,78,47,29.31,29.14,9,0,9,0.00
2013-8-24,82.7,64.3,40.6,61.0,46.1,37.9,93,55,33,29.32,29.25,16,3,16,0.00
2013-8-25,87.6,57.5,32.7,54.6,41.8,28.9,89,60,29,29.37,29.29,7,1,7,0.00
2013-8-26,83.1,53.7,33.9,57.6,42.2,29.7,88,68,35,29.38,29.32,9,0,9,0.00
2013-8-27,78.6,58.5,49.2,56.0,48.6,43.9,86,71,43,29.42,29.35,8,1,8,0.00
2013-8-28,70.5,56.8,50.3,52.8,47.7,43.5,90,72,52,29.35,29.15,12,1,12,0.02
2013-8-29,55.2,52.7,50.9,52.7,50.3,48.8,93,92,90,29.48,29.12,20,6,20,0.08
2013-8-30,64.0,55.6,50.7,56.6,51.8,48.4,94,88,74,29.58,29.47,5,0,5,0.00
2013-8-31,61.7,55.5,47.3,53.4,50.5,44.8,92,84,71,29.52,29.44,25,0,25,0.02
2013-9-1,62.7,57.9,49.1,53.9,51.6,46.3,91,80,72,29.44,29.36,7,0,7,0.00
2013-9-2,62.2,56.4,51.4,57.6,53.2,49.0,93,89,84,29.29,29.14,7,0,7,0.16
2013-9-3,72.3,60.0,52.3,56.6,49.1,45.2,84,68,54,29.01,28.89,61,3,61,0.00
2013-9-4,59.5,55.4,46.9,53.1,48.6,44.5,92,79,63,29.34,29.07,20,3,20,0.02
2013-9-5,64.5,52.0,39.9,54.2,45.4,37.2,91,79,58,29.62,29.50,8,0,8,0.00
2013-9-6,52.7,49.4,46.2,48.4,46.4,43.7,92,89,85,29.39,29.01,28,8,28,0.00
2013-9-7,62.4,52.8,48.3,57.6,50.1,46.4,94,91,79,29.26,29.03,14,1,14,0.14
2013-9-8,71.7,56.8,46.9,55.1,46.5,42.6,93,70,47,29.44,29.12,16,3,19,0.00
2013-9-9,64.2,54.8,51.0,49.8,45.9,42.9,87,72,58,29.44,29.21,16,3,16,0.02
2013-9-10,58.6,53.0,49.6,55.4,50.2,46.6,93,90,87,29.36,29.28,7,0,7,0.17
2013-9-11,66.0,53.8,49.2,57.0,49.1,44.7,94,85,66,29.52,29.22,21,1,21,0.22
2013-9-12,57.0,48.8,38.1,49.4,42.8,35.4,92,80,65,29.60,29.50,12,1,12,0.00
2013-9-13,71.9,54.2,46.9,56.3,46.7,43.3,89,77,54,29.51,29.46,12,2,12,0.00
2013-9-14,78.8,59.8,47.1,57.6,48.8,44.6,93,70,41,29.52,29.46,14,2,14,0.00
2013-9-15,84.0,54.8,33.4,53.6,41.5,30.2,92,65,33,29.50,29.34,8,0,8,0.00
2013-9-16,40.2,32.5,29.1,34.8,28.5,25.4,88,85,81,29.34,29.23,0,0,0,0.00
2013-10-8,43.8,39.5,37.2,41.4,36.6,34.2,91,90,88,28.72,28.69,12,3,12,0.00
2013-10-9,60.9,41.6,30.0,43.0,32.6,24.2,91,73,41,29.35,28.72,59,3,59,0.00
2013-10-10,41.1,34.9,27.6,37.8,31.2,23.9,91,86,81,29.35,29.28,6,0,6,0.02
2013-10-11,53.2,43.0,38.1,48.8,39.9,35.6,92,89,81,29.47,29.31,2,0,2,0.04
2013-10-12,53.4,47.1,41.3,42.6,39.4,37.0,91,75,63,29.45,29.19,24,4,24,0.00
2013-10-13,57.0,44.5,39.7,50.1,39.7,32.0,91,83,69,29.29,29.07,22,2,22,0.32
2013-10-14,56.1,40.7,31.2,49.1,37.4,28.7,94,88,74,29.67,29.30,2,0,2,0.00
2013-10-15,48.9,44.1,39.9,46.7,41.8,37.4,93,92,90,29.74,29.60,4,0,4,0.02
2013-10-16,54.5,46.7,41.5,48.8,42.7,37.0,93,86,74,29.86,29.73,13,1,13,0.02
2013-10-17,57.9,47.7,39.9,42.2,38.6,36.2,89,72,55,29.73,29.34,25,4,25,0.00
2013-10-18,55.5,48.0,41.1,44.3,38.3,35.6,82,69,61,29.39,29.25,20,3,20,0.00
2013-10-19,58.1,46.0,38.4,50.1,37.7,32.5,87,73,62,29.22,28.96,8,0,8,0.02
2013-10-20,59.5,45.1,37.9,45.2,36.5,33.5,84,72,55,29.51,29.39,6,0,6,0.00
2013-10-21,58.8,41.5,29.3,48.7,34.2,26.4,91,76,59,29.64,29.59,10,1,10,0.00
2013-10-22,65.4,40.5,27.8,46.6,32.3,23.4,86,74,47,29.80,29.66,6,0,6,0.00
2013-10-23,61.3,37.4,0.0,43.7,30.6,-3.0,89,78,46,29.66,29.36,9,1,9,0.00
2013-10-24,44.9,40.1,28.5,36.1,33.0,24.9,87,76,69,29.38,29.21,22,5,22,0.00
2013-10-25,60.6,38.0,24.9,46.2,30.8,21.6,91,76,56,29.68,29.44,3,0,3,0.00
2013-10-26,52.8,34.1,24.8,42.7,29.3,21.4,90,83,65,30.04,29.92,9,2,9,0.00
2013-10-27,45.6,41.0,38.3,43.7,38.2,35.4,93,90,80,29.75,29.16,15,5,17,0.04
2013-10-28,49.6,45.5,40.6,46.2,42.7,37.1,93,90,86,29.17,28.85,20,4,20,0.86
2013-10-29,62.6,41.1,31.8,50.7,35.9,29.3,93,82,59,29.19,28.92,12,2,12,0.00
2013-10-30,56.4,42.3,38.4,42.7,35.8,34.0,86,78,57,28.92,28.66,18,5,18,0.00
2013-10-31,49.4,40.3,36.3,44.7,36.7,33.0,91,87,81,29.24,28.76,6,0,6,0.04
2013-11-1,44.0,39.7,36.8,40.7,36.9,34.1,92,90,85,29.59,29.24,4,0,4,0.00
2013-11-2,41.1,35.8,0.0,36.3,32.3,-2.3,91,87,73,29.55,29.37,10,2,10,0.00
2013-11-3,49.2,45.0,42.0,37.2,34.8,33.0,70,67,62,29.35,29.12,11,3,11,0.00
2013-11-4,41.9,36.3,0.0,33.7,30.2,0.0,83,78,70,29.13,28.92,17,3,17,0.00
2013-11-5,40.6,38.4,30.5,35.3,32.1,24.1,84,78,74,29.48,29.34,0,0,0,0.00
2013-11-6,45.6,22.8,0.0,36.9,16.9,-5.5,91,79,58,29.69,29.52,57,0,57,0.00
2013-11-7,30.5,24.6,19.5,22.3,18.6,14.3,85,78,68,29.52,29.37,16,2,16,0.00
2013-11-8,45.6,20.2,12.2,33.0,14.5,7.4,90,79,57,29.83,29.49,0,0,0,0.00
2013-11-9,28.0,23.5,12.3,25.2,20.0,7.8,89,86,82,29.83,29.69,6,1,6,0.00
2013-11-10,39.5,36.8,32.0,37.4,34.5,29.9,92,92,91,29.50,29.32,11,1,11,0.31
2013-11-11,31.8,24.9,21.9,29.8,22.4,18.8,92,90,88,29.68,29.55,0,0,0,0.00
2013-11-12,7.1,2.6,1.5,3.3,-1.3,-2.5,85,83,83,29.74,29.71,0,0,0,0.00
2013-11-14,31.8,29.7,27.1,29.8,27.7,25.1,92,92,91,29.65,29.49,7,1,7,0.00
2013-11-15,28.2,22.0,14.3,25.9,19.6,11.4,92,90,88,29.66,29.55,3,0,3,0.00
2013-11-16,27.1,13.4,3.0,24.1,10.0,-0.8,91,86,82,29.86,29.62,12,1,12,0.00
2013-11-17,20.3,4.9,-5.2,15.8,0.4,-9.7,88,82,78,29.89,29.82,10,0,10,0.00
2013-11-18,12.7,-3.6,-10.1,8.1,-8.1,-14.6,86,81,79,29.85,29.79,0,0,0,0.00
2013-11-19,6.6,-5.2,-13.7,2.5,-9.7,-18.7,84,81,78,29.80,29.61,0,0,0,0.00
2013-11-20,7.7,2.3,-4.1,3.8,-1.9,-8.6,84,82,81,29.70,29.59,14,2,14,0.00
2013-11-21,19.2,9.1,-2.3,15.8,4.6,-6.5,87,82,75,29.59,28.77,24,7,24,0.00
2013-11-22,27.6,21.0,12.0,24.8,17.0,7.5,89,85,73,29.10,28.73,16,2,16,0.00
2013-11-23,30.9,20.6,10.2,27.5,17.4,6.5,90,87,73,29.58,29.10,11,1,11,0.00
2013-11-24,30.7,26.4,20.8,28.4,23.9,18.0,91,90,89,29.64,29.58,0,0,0,0.00
2013-11-25,27.1,25.4,23.9,24.8,23.1,21.6,91,91,91,29.47,29.35,0,0,0,0.00
2013-12-16,-12.4,-16.1,-18.5,-17.2,-21.0,-23.5,79,78,77,29.78,29.75,0,0,0,0.00
2013-12-17,0.0,-18.0,-21.8,-5.7,-23.1,-26.9,79,77,76,30.02,29.78,0,0,0,0.00
2013-12-18,12.0,1.2,-13.9,8.8,-2.7,-18.9,87,83,78,30.03,29.33,0,0,0,0.00
2013-12-19,13.8,10.1,3.3,10.9,6.8,-0.4,88,86,84,29.36,29.30,0,0,8,0.00
2013-12-21,31.8,31.7,31.1,30.1,29.9,29.5,94,93,93,29.14,29.07,0,0,0,0.00
2013-12-22,31.2,30.1,28.5,29.7,28.4,26.4,94,93,93,29.14,29.01,0,0,0,0.00
2013-12-23,1.9,-2.5,-7.9,-1.6,-6.5,-12.3,85,83,81,29.72,29.49,0,0,0,0.00
2013-12-24,-5.2,-9.3,-13.1,-9.4,-13.7,-17.6,82,81,80,29.73,29.42,0,0,0,0.00
2013-12-25,-10.6,-13.8,-16.9,-15.1,-18.6,-21.9,80,79,78,29.43,29.36,0,0,0,0.00
2013-12-26,-5.6,-12.8,-16.9,-9.8,-17.6,-21.9,82,79,77,29.43,29.33,0,0,0,0.00
2013-12-27,15.0,-2.8,-16.7,12.1,-6.9,-21.8,88,82,77,29.56,29.42,0,0,0,0.00
2013-12-28,21.3,17.0,13.6,18.5,14.3,10.7,90,89,88,29.56,29.51,0,0,0,0.00
2013-12-29,17.9,15.7,12.7,15.2,12.9,9.8,90,89,87,29.58,29.33,0,0,2,0.00
2013-12-30,19.5,11.6,3.0,17.0,8.5,-1.0,90,87,84,29.22,29.08,0,0,0,0.00
2013-12-31,27.5,15.5,1.7,25.4,12.6,-2.0,92,88,84,29.24,28.81,0,0,0,0.00
2014-1-1,33.6,30.8,23.9,31.7,29.0,21.6,94,93,91,29.11,28.70,6,0,6,0.00
2014-1-2,30.5,25.6,20.1,28.7,23.5,17.6,93,92,90,29.66,29.11,2,0,2,0.00